SUNNYSIDE Weather Reports


time (UTC)temp
C
wind
direction
speed
KPH
gust
KPH
rain 1hr
cm
rain 24hr
cm
rain mn
cm
humidity
%
barometer
mb
20260507060517 -3 132 0.0 3.2 0.00 0.00 0.00 57 982.9
20260507060027 -3 132 0.0 3.2 0.00 0.00 0.00 56 982.9
20260507055517 -3 132 0.0 3.2 0.00 0.00 0.00 56 982.9
20260507055019 -3 132 0.0 4.8 0.00 0.00 0.00 56 982.9
20260507054517 -3 132 1.6 4.8 0.00 0.00 0.00 57 982.9
20260507054017 -3 164 0.0 4.8 0.00 0.00 0.00 57 983.0
20260507053517 -3 150 1.6 8.0 0.00 0.00 0.00 57 983.0
20260507053017 -3 166 1.6 8.0 0.00 0.00 0.00 58 983.0
20260507052516 -3 101 1.6 4.8 0.00 0.00 0.00 57 983.0
20260507052015 -3 101 1.6 4.8 0.00 0.00 0.00 56 983.0
20260507051515 -3 101 3.2 4.8 0.00 0.00 0.00 56 983.0
20260507051013 -3 101 1.6 4.8 0.00 0.00 0.00 57 983.0
20260507050512 -3 101 1.6 4.8 0.00 0.00 0.00 57 983.1
20260507050024 -3 101 1.6 4.8 0.00 0.00 0.00 56 983.0
20260507045510 -3 101 3.2 6.4 0.00 0.00 0.00 55 983.1
20260507045009 -2 101 3.2 6.4 0.00 0.00 0.00 56 983.2
20260507044523 -2 96 3.2 6.4 0.00 0.00 0.00 56 983.2
20260507044014 -2 91 4.8 9.7 0.00 0.00 0.00 56 983.1
20260507043507 -2 92 4.8 9.7 0.00 0.00 0.00 56 983.2
20260507043007 -2 93 4.8 6.4 0.00 0.00 0.00 56 983.2
20260507042507 -2 94 4.8 9.7 0.00 0.00 0.00 56 983.3
20260507042006 -2 86 4.8 9.7 0.00 0.00 0.00 55 983.2
20260507041505 -2 86 4.8 9.7 0.00 0.00 0.00 56 983.2
20260507041004 -2 86 4.8 9.7 0.00 0.00 0.00 55 983.3
20260507040503 -2 96 4.8 9.7 0.00 0.00 0.00 55 983.3
20260507040002 -2 96 4.8 9.7 0.00 0.00 0.00 55 983.3
20260507035501 -1 92 4.8 6.4 0.00 0.00 0.00 54 983.3
20260507035101 -1 96 3.2 9.7 0.00 0.00 0.00 53 983.4
20260507034605 -1 96 3.2 11.3 0.00 0.00 0.00 54 983.4
20260507034059 -1 90 6.4 11.3 0.00 0.00 0.00 54 983.4
20260507033559 -1 89 6.4 9.7 0.00 0.00 0.00 54 983.4
20260507033059 -1 82 6.4 11.3 0.00 0.00 0.00 54 983.4
20260507032557 -1 78 4.8 11.3 0.00 0.00 0.00 53 983.4
20260507032057 -1 88 4.8 9.7 0.00 0.00 0.00 53 983.4
20260507031556 0 78 4.8 8.0 0.00 0.00 0.00 53 983.5
20260507031100 0 76 4.8 11.3 0.00 0.00 0.00 52 983.5
20260507030557 0 86 4.8 11.3 0.00 0.00 0.00 52 983.6
20260507030106 0 86 6.4 12.9 0.00 0.00 0.00 51 983.6
20260507025556 0 88 6.4 14.5 0.00 0.00 0.00 51 983.5
20260507025056 0 74 8.0 14.5 0.00 0.00 0.00 50 983.5
20260507024607 0 79 6.4 12.9 0.00 0.00 0.00 50 983.5
20260507024100 1 78 8.0 12.9 0.00 0.00 0.00 49 983.6
20260507023559 1 82 6.4 14.5 0.00 0.00 0.00 47 983.6
20260507023056 2 74 8.0 17.7 0.00 0.00 0.00 45 983.6
20260507022556 2 69 9.7 17.7 0.00 0.00 0.00 42 983.6
20260507022056 2 19 0.0 3.2 0.00 0.00 0.00 37 983.5
20260507021615 2 19 0.0 1.6 0.00 0.00 0.00 37 983.4
20260507021055 3 19 0.0 3.2 0.00 0.00 0.00 36 983.3
20260507020555 3 19 0.0 3.2 0.00 0.00 0.00 36 983.3
20260507020104 3 19 0.0 4.8 0.00 0.00 0.00 36 983.3
20260507015555 3 20 1.6 4.8 0.00 0.00 0.00 35 983.4
20260507015058 3 5 0.0 8.0 0.00 0.00 0.00 34 983.2
20260507014612 4 11 3.2 9.7 0.00 0.00 0.00 34 983.0
20260507014054 4 24 3.2 9.7 0.00 0.00 0.00 33 983.1
20260507013553 4 350 3.2 8.0 0.00 0.00 0.00 33 983.1
20260507013056 4 37 1.6 12.9 0.00 0.00 0.00 32 983.2
20260507012558 5 19 3.2 12.9 0.00 0.00 0.00 32 983.2
20260507012054 5 44 3.2 12.9 0.00 0.00 0.00 32 983.3
20260507011553 5 29 3.2 14.5 0.00 0.00 0.00 32 983.3
20260507011055 5 40 3.2 14.5 0.00 0.00 0.00 32 983.2
20260507010557 5 26 3.2 17.7 0.00 0.00 0.00 32 983.1
20260507010107 5 360 6.4 17.7 0.00 0.00 0.00 32 983.1
20260507005553 5 28 4.8 14.5 0.00 0.00 0.00 32 983.2
20260507005052 5 22 4.8 14.5 0.00 0.00 0.00 33 983.1
20260507004552 5 10 6.4 17.7 0.00 0.00 0.00 32 983.1
20260507004051 5 355 8.0 17.7 0.00 0.00 0.00 33 983.1
20260507003551 5 355 4.8 16.1 0.00 0.00 0.00 34 983.2
20260507003051 5 342 6.4 16.1 0.00 0.00 0.00 34 983.1
20260507002550 5 21 8.0 16.1 0.00 0.00 0.00 34 983.2
20260507002050 5 355 4.8 16.1 0.00 0.00 0.00 35 983.3
20260507001552 6 38 6.4 16.1 0.00 0.00 0.00 34 983.3
20260507001048 6 5 8.0 17.7 0.00 0.00 0.00 34 983.4
20260507000547 6 5 6.4 17.7 0.00 0.00 0.00 35 983.4
20260507000048 6 26 6.4 17.7 0.00 0.00 0.00 34 983.5
20260506235549 6 355 4.8 17.7 0.00 0.00 0.00 34 983.5
20260506235047 6 350 6.4 19.3 0.00 0.00 0.00 35 983.5
20260506234548 6 20 6.4 19.3 0.00 0.00 0.00 35 983.5
20260506234047 6 5 8.0 19.3 0.00 0.00 0.00 35 983.4
20260506233548 6 23 6.4 19.3 0.00 0.00 0.00 35 983.5
20260506233052 6 32 9.7 19.3 0.00 0.00 0.00 35 983.5
20260506232547 6 325 6.4 22.5 0.00 0.00 0.00 36 983.6
20260506232046 6 355 11.3 22.5 0.00 0.00 0.00 35 983.6
20260506231546 6 355 9.7 17.7 0.00 0.00 0.00 36 983.7
20260506231048 6 336 11.3 20.9 0.00 0.00 0.00 36 983.6
20260506230548 6 350 11.3 20.9 0.00 0.00 0.00 37 983.7
20260506230046 6 28 11.3 20.9 0.00 0.00 0.00 35 983.8
20260506225545 6 323 11.3 20.9 0.00 0.00 0.00 36 983.6
20260506225045 6 42 8.0 22.5 0.00 0.00 0.00 35 983.6
20260506224545 6 331 9.7 22.5 0.00 0.00 0.00 36 983.5
20260506224045 6 346 8.0 27.4 0.00 0.00 0.00 35 983.5
20260506223544 6 306 14.5 27.4 0.00 0.00 0.00 36 983.5
20260506223046 6 315 11.3 19.3 0.00 0.00 0.00 36 983.6
20260506222544 6 338 9.7 19.3 0.00 0.00 0.00 36 983.6
20260506222044 6 19 8.0 22.5 0.00 0.00 0.00 37 983.7
20260506221545 6 315 12.9 22.5 0.00 0.00 0.00 37 983.6
20260506221043 6 346 9.7 19.3 0.00 0.00 0.00 37 983.8
20260506220542 6 26 6.4 20.9 0.00 0.00 0.00 36 983.8
20260506220044 6 19 9.7 20.9 0.00 0.00 0.00 36 983.8
20260506215545 6 314 9.7 22.5 0.00 0.00 0.00 36 983.8
20260506215042 6 350 12.9 22.5 0.00 0.00 0.00 36 983.9
20260506214544 6 333 11.3 20.9 0.00 0.00 0.00 38 983.9
20260506214041 6 45 8.0 24.1 0.00 0.00 0.00 37 984.0
20260506213541 6 317 11.3 24.1 0.00 0.00 0.00 37 984.1
20260506213040 6 355 9.7 25.7 0.00 0.00 0.00 37 984.0
20260506212542 6 355 9.7 25.7 0.00 0.00 0.00 37 984.2
20260506212041 6 311 14.5 22.5 0.00 0.00 0.00 38 984.2
20260506211538 6 360 8.0 19.3 0.00 0.00 0.00 37 984.3
20260506211038 6 15 8.0 19.3 0.00 0.00 0.00 37 984.2
20260506210542 6 334 11.3 22.5 0.00 0.00 0.00 38 984.2
20260506210038 6 26 9.7 22.5 0.00 0.00 0.00 38 984.3
20260506205537 6 337 11.3 24.1 0.00 0.00 0.00 38 984.2
20260506205038 6 319 8.0 22.5 0.00 0.00 0.00 40 984.4
20260506204535 6 338 9.7 24.1 0.00 0.00 0.00 39 984.6
20260506204034 6 288 11.3 29.0 0.00 0.00 0.00 38 984.5
20260506203534 6 332 11.3 29.0 0.00 0.00 0.00 39 984.6
20260506203034 5 355 9.7 24.1 0.00 0.00 0.00 39 984.6
20260506202533 5 341 6.4 24.1 0.00 0.00 0.00 39 984.7
20260506202033 5 333 6.4 22.5 0.00 0.00 0.00 39 984.6
20260506201542 5 304 11.3 22.5 0.00 0.00 0.00 40 984.9
20260506201034 5 340 8.0 19.3 0.00 0.00 0.00 39 984.8
20260506200530 6 340 9.7 24.1 0.00 0.00 0.00 40 984.8
20260506200031 5 67 12.9 25.7 0.00 0.00 0.00 41 984.8
20260506195529 5 33 12.9 25.7 0.00 0.00 0.00 41 984.8
20260506195031 5 342 9.7 27.4 0.00 0.00 0.00 40 985.0
20260506194534 5 304 11.3 27.4 0.00 0.00 0.00 43 985.1
20260506194027 5 325 6.4 22.5 0.00 0.00 0.00 42 985.0
20260506193526 5 360 12.9 22.5 0.00 0.00 0.00 42 985.0
20260506193026 5 278 12.9 27.4 0.00 0.00 0.00 42 985.2
20260506192527 5 339 11.3 27.4 0.00 0.00 0.00 41 985.2
20260506192026 5 304 12.9 27.4 0.00 0.00 0.00 41 985.2
20260506191525 5 312 12.9 27.4 0.00 0.00 0.00 42 985.3
20260506191025 5 284 14.5 22.5 0.00 0.00 0.00 42 985.3
20260506190523 5 348 9.7 20.9 0.00 0.00 0.00 43 985.2
20260506190023 5 347 6.4 22.5 0.00 0.00 0.00 42 985.4
20260506185522 5 312 11.3 25.7 0.00 0.00 0.00 44 985.4
20260506185021 4 303 11.3 25.7 0.00 0.00 0.00 42 985.3
20260506184520 4 28 9.7 25.7 0.00 0.00 0.00 42 985.5
20260506184021 4 5 12.9 22.5 0.00 0.00 0.00 43 985.5
20260506183519 4 341 9.7 29.0 0.00 0.00 0.00 42 985.6
20260506183018 4 11 16.1 29.0 0.00 0.00 0.00 43 985.6
20260506182518 3 334 12.9 24.1 0.00 0.00 0.00 42 985.6
20260506182019 4 336 14.5 27.4 0.00 0.00 0.00 42 985.7
20260506181518 3 351 12.9 27.4 0.00 0.00 0.00 41 985.7
20260506181016 4 311 16.1 25.7 0.00 0.00 0.00 43 985.8
20260506180518 4 338 16.1 27.4 0.00 0.00 0.00 43 985.8
20260506180016 4 296 19.3 27.4 0.00 0.00 0.00 44 985.9
20260506175516 3 331 16.1 25.7 0.00 0.00 0.00 45 985.9
20260506175013 3 355 16.1 27.4 0.00 0.00 0.00 43 986.1
20260506174513 3 315 11.3 27.4 0.00 0.00 0.00 44 986.1
20260506174013 3 299 16.1 27.4 0.00 0.00 0.00 42 986.2
20260506173512 3 303 12.9 30.6 0.00 0.00 0.00 43 986.0
20260506173011 3 312 17.7 30.6 0.00 0.00 0.00 43 986.2
20260506172510 3 343 16.1 27.4 0.00 0.00 0.00 42 986.3
20260506172109 3 326 17.7 30.6 0.00 0.00 0.00 43 986.2
20260506171507 3 5 12.9 30.6 0.00 0.00 0.00 43 986.3
20260506171005 3 350 16.1 27.4 0.00 0.00 0.00 43 986.2
20260506170504 3 339 17.7 29.0 0.00 0.00 0.00 42 986.3
20260506170004 3 294 14.5 29.0 0.00 0.00 0.00 44 986.5
20260506165502 2 346 16.1 30.6 0.00 0.00 0.00 44 986.5
20260506165002 2 325 16.1 30.6 0.00 0.00 0.00 42 986.6
20260506164601 2 342 16.1 33.8 0.00 0.00 0.00 43 986.6
20260506164057 2 333 16.1 33.8 0.00 0.00 0.00 45 986.5
20260506163557 2 343 17.7 27.4 0.00 0.00 0.00 44 986.5
20260506163104 2 325 14.5 22.5 0.00 0.00 0.00 47 986.6
20260506162556 2 262 14.5 22.5 0.00 0.00 0.00 46 986.6
20260506162056 2 323 12.9 20.9 0.00 0.00 0.00 47 986.6
20260506161600 2 332 11.3 24.1 0.00 0.00 0.00 48 986.6
20260506161053 2 324 12.9 25.7 0.00 0.00 0.00 49 986.7
20260506160552 2 322 16.1 25.7 0.00 0.00 0.00 49 986.8
20260506160051 2 304 14.5 24.1 0.00 0.00 0.00 51 986.7
20260506155549 2 306 12.9 24.1 0.00 0.00 0.00 52 986.8
20260506155048 2 355 9.7 22.5 0.00 0.00 0.00 53 986.9
20260506154552 2 323 16.1 22.5 0.00 0.00 0.00 52 986.9
20260506154046 2 15 11.3 24.1 0.00 0.00 0.00 54 986.8
20260506153545 2 344 11.3 24.1 0.00 0.00 0.00 53 986.8
20260506153047 1 284 14.5 20.9 0.00 0.00 0.00 53 986.8
20260506152545 2 331 14.5 22.5 0.00 0.00 0.00 52 986.9
20260506152047 2 355 14.5 22.5 0.00 0.00 0.00 51 986.8
20260506151544 2 355 12.9 20.9 0.00 0.00 0.00 52 986.7
20260506151044 2 344 12.9 20.9 0.00 0.00 0.00 52 986.8
20260506150543 2 304 14.5 20.9 0.00 0.00 0.00 51 986.7
20260506150043 2 310 12.9 22.5 0.00 0.00 0.00 52 986.8
20260506145542 2 300 12.9 20.9 0.00 0.00 0.00 52 986.8
20260506145042 2 355 11.3 19.3 0.00 0.00 0.00 52 986.8
20260506144544 2 287 11.3 20.9 0.00 0.00 0.00 52 986.7
20260506144042 2 332 9.7 20.9 0.00 0.00 0.00 52 986.7
20260506143542 2 319 11.3 20.9 0.00 0.00 0.00 52 986.7
20260506143041 2 311 12.9 20.9 0.00 0.00 0.00 51 986.7
20260506142540 2 325 8.0 20.9 0.00 0.00 0.00 53 986.6
20260506142042 2 324 11.3 19.3 0.00 0.00 0.00 52 986.6
20260506141538 1 297 12.9 19.3 0.00 0.00 0.00 52 986.7
20260506141038 1 297 11.3 17.7 0.00 0.00 0.00 53 986.7
20260506140537 1 325 14.5 20.9 0.00 0.00 0.00 52 986.7
20260506140042 1 333 12.9 19.3 0.00 0.00 0.00 52 986.8
20260506135535 1 317 11.3 20.9 0.00 0.00 0.00 52 986.6
20260506135035 1 325 12.9 20.9 0.00 0.00 0.00 52 986.8
20260506134535 1 290 12.9 17.7 0.00 0.00 0.00 52 986.8
20260506134035 1 342 11.3 16.1 0.00 0.00 0.00 52 986.8
20260506133535 1 292 9.7 17.7 0.00 0.00 0.00 52 986.7
20260506133034 1 309 11.3 17.7 0.00 0.00 0.00 52 986.7
20260506132532 1 292 8.0 17.7 0.00 0.00 0.00 52 986.7
20260506132032 1 244 8.0 19.3 0.00 0.00 0.00 53 986.7
20260506131534 1 292 12.9 19.3 0.00 0.00 0.00 53 986.7
20260506131028 1 309 8.0 17.7 0.00 0.00 0.00 53 986.8
20260506130529 1 336 8.0 17.7 0.00 0.00 0.00 53 986.7
20260506130029 0 308 9.7 16.1 0.00 0.00 0.00 53 986.6
20260506125526 0 294 6.4 12.9 0.00 0.00 0.00 53 986.6
20260506125027 0 286 8.0 14.5 0.00 0.00 0.00 53 986.7
20260506124525 0 292 4.8 14.5 0.00 0.00 0.00 53 986.6
20260506124027 0 286 6.4 12.9 0.00 0.00 0.00 54 986.6
20260506123524 0 260 4.8 11.3 0.00 0.00 0.00 54 986.6
20260506123023 0 271 6.4 12.9 0.00 0.00 0.00 54 986.6
20260506122523 0 276 6.4 12.9 0.00 0.00 0.00 55 986.6
20260506122021 0 275 6.4 12.9 0.00 0.00 0.00 55 986.6
20260506121521 0 267 6.4 11.3 0.00 0.00 0.00 56 986.5
20260506121020 0 265 4.8 8.0 0.00 0.00 0.00 56 986.5
20260506120521 0 278 4.8 11.3 0.00 0.00 0.00 56 986.4
20260506120029 0 255 4.8 11.3 0.00 0.00 0.00 56 986.3
20260506115521 0 269 3.2 9.7 0.00 0.00 0.00 55 986.4
20260506115020 0 272 3.2 6.4 0.00 0.00 0.00 56 986.3
20260506114521 0 260 3.2 8.0 0.00 0.00 0.00 55 986.3
20260506114020 0 254 4.8 8.0 0.00 0.00 0.00 55 986.4
20260506113520 0 271 3.2 8.0 0.00 0.00 0.00 56 986.3
20260506113020 0 239 4.8 8.0 0.00 0.00 0.00 56 986.2
20260506112519 0 245 4.8 6.4 0.00 0.00 0.00 56 986.2
20260506112019 0 254 3.2 6.4 0.00 0.00 0.00 56 986.3
20260506111523 0 254 4.8 6.4 0.00 0.00 0.00 56 986.3
20260506111019 0 277 1.6 4.8 0.00 0.00 0.00 56 986.3
20260506110518 0 277 1.6 4.8 0.00 0.00 0.00 56 986.3
20260506110019 0 277 1.6 4.8 0.00 0.00 0.00 56 986.2
20260506105519 0 277 1.6 4.8 0.00 0.00 0.00 56 986.2
20260506105018 0 277 1.6 4.8 0.00 0.00 0.00 56 986.3
20260506104518 0 277 1.6 4.8 0.00 0.00 0.00 56 986.2
20260506104018 0 277 0.0 4.8 0.00 0.00 0.00 56 986.2
20260506103518 0 277 1.6 4.8 0.00 0.00 0.00 56 986.2
20260506103021 0 277 1.6 6.4 0.00 0.00 0.00 56 986.3
20260506102521 0 277 1.6 6.4 0.00 0.00 0.00 56 986.3
20260506102018 0 277 3.2 6.4 0.00 0.00 0.00 56 986.2
20260506101519 0 277 3.2 4.8 0.00 0.00 0.00 56 986.3
20260506101017 0 277 1.6 6.4 0.00 0.00 0.00 56 986.4
20260506100517 0 301 3.2 8.0 0.00 0.00 0.00 56 986.4
20260506100017 0 256 3.2 8.0 0.00 0.00 0.00 56 986.4
20260506095519 0 281 3.2 6.4 0.00 0.00 0.00 56 986.5
20260506095016 0 261 3.2 6.4 0.00 0.00 0.00 56 986.5
20260506094517 0 261 3.2 6.4 0.00 0.00 0.00 56 986.4
20260506094017 0 289 1.6 6.4 0.00 0.00 0.00 56 986.4
20260506093519 0 298 3.2 8.0 0.00 0.00 0.00 56 986.4
20260506093028 0 304 4.8 8.0 0.00 0.00 0.00 56 986.4
20260506092516 0 284 4.8 8.0 0.00 0.00 0.00 56 986.4
20260506092018 0 294 3.2 9.7 0.00 0.00 0.00 56 986.4
20260506091516 0 275 3.2 9.7 0.00 0.00 0.00 56 986.3
20260506091015 0 254 4.8 6.4 0.00 0.00 0.00 56 986.2
20260506090514 0 281 3.2 6.4 0.00 0.00 0.00 56 986.3
20260506090014 0 267 1.6 8.0 0.00 0.00 0.00 56 986.3
20260506085516 0 296 4.8 8.0 0.00 0.00 0.00 56 986.4
20260506085014 0 295 4.8 8.0 0.00 0.00 0.00 56 986.3
20260506084516 0 292 3.2 11.3 0.00 0.00 0.00 56 986.3
20260506084017 0 279 4.8 11.3 0.00 0.00 0.00 56 986.2
20260506083514 0 304 4.8 12.9 0.00 0.00 0.00 56 986.3
20260506083014 0 292 6.4 12.9 0.00 0.00 0.00 56 986.3
20260506082518 0 297 4.8 9.7 0.00 0.00 0.00 56 986.3
20260506082013 0 294 6.4 12.9 0.00 0.00 0.00 56 986.3
20260506081512 0 296 4.8 12.9 0.00 0.00 0.00 56 986.3
20260506081016 0 292 6.4 12.9 0.00 0.00 0.00 56 986.3
20260506080512 0 296 6.4 14.5 0.00 0.00 0.00 55 986.3
20260506073512 0 323 6.4 12.9 0.00 0.00 0.00 55 986.3
20260506073010 0 281 4.8 12.9 0.00 0.00 0.00 54 986.3
20260506072508 0 298 3.2 11.3 0.00 0.00 0.00 54 986.3
20260506072009 0 273 6.4 12.9 0.00 0.00 0.00 54 986.3
20260506071508 0 286 4.8 12.9 0.00 0.00 0.00 54 986.3
20260506071006 0 290 4.8 9.7 0.00 0.00 0.00 54 986.4
20260506070505 0 300 4.8 9.7 0.00 0.00 0.00 55 986.4
20260506062500 -1 277 3.2 8.0 0.00 0.00 0.00 56 986.4
20260506062100 -1 277 1.6 6.4 0.00 0.00 0.00 56 986.4
20260506061605 -1 277 3.2 6.4 0.00 0.00 0.00 56 986.5
20260506061059 -1 294 1.6 8.0 0.00 0.00 0.00 56 986.5